User: anonymous   Login
Location: ?ejeti?ky
(50.4060°N, 14.9016°E)
Time: 11:01:25
(UTC+00:00)
Language:

STARLINK-1329 - Orbit

View from above orbital plane
View from above orbital plane
View from above satellite
View from above satellite

Ground track
Ground track

The orbit data is extracted from the following two-line orbital elements,

1 45531U 20025A   21167.08307588  .00001067  00000-0  90507-4 0  9992
2 45531  53.0546 302.1518 0001505 130.4236 229.6884 15.06398600 64101
Epoch (UTC): 16 June 2021 01:59:37
Eccentricity: 0.0001505
inclination: 53.0546°
perigee height: 546 km
apogee height: 548 km
right ascension of ascending node: 302.1518°
argument of perigee: 130.4236°
revolutions per day: 15.06398600
mean anomaly at epoch: 229.6884°
orbit number at epoch: 6410

The dashed part of the orbit path shows where the satellite is in the earth's shadow,  

DLR